Location: Newark
(50.0306°N, 2.3272°E)
Time: 13:56:27
(UTC+00:00)

Transit 2A Rocket - Pass Details

Date: 12 December 2019
Orbit: 593 x 910 km, 66.7° (Epoch: 28 January)

Event Time Altitude Azimuth Distance (km) Brightness Sun altitude
Rises 23:27:19 0° 325° (NW) 2,857 - -62.9°
Reaches altitude 10° 23:29:35 10° 331° (NNW) 1,968 - -62.9°
Maximum altitude 23:33:53 52° 48° (NE) 791 - -63.0°
Drops below altitude 10° 23:38:27 10° 125° (SE) 2,086 - -63.1°
Sets 23:40:54 0° 130° (SE) 3,046 - -63.1°
